Tracking 30009 objects as of 8-Dec-2024
HD Live streaming from Space Station
objects crossing your sky now

FENGYUN 1B

Track FENGYUN 1B now!
10-day predictions
FENGYUN 1B is classified as:


NORAD ID: 20788
Int'l Code: 1990-081A
Perigee: 877.9 km
Apogee: 902.8 km
Inclination: 98.9 °
Period: 102.6 minutes
Semi major axis: 7261 km
RCS: 3.0595 m2 (large)
Launch date: September 3, 1990
Source: People's Republic of China (PRC)
Launch site: Taiyaun Space Center, China (TSC)
Your satellite tracking list
Your tracking list is empty




NASA's NSSDC Master Catalog

Two Line Element Set (TLE):
1 20788U 90081A   24342.57137782  .00000076  00000-0  76892-4 0  9997
2 20788  98.9090 321.4950 0017103  82.3318 277.9791 14.03059065753496
Source of the keplerian elements: AFSPC